Hourly Data Report for October 21, 2015

All times are specified in Local Standard Time (LST). Add 1 hour to adjust for Daylight Saving Time where and when it is observed.

KAMLOOPS A
BRITISH COLUMBIA

50°42'09.000" N
120°26'55.000" W
345.30 m
1163781
71887
YKA

Download Data

Hourly Data (October 2015)
Hourly Data Report for October 21, 2015
Temp Definition
°C
Dew Point Temp Definition
°C
Rel Hum Definition
%
Wind Dir Definition
10's deg

Wind Spd Definition
km/h
Visibility Definition
km
Stn Press Definition
kPa
Hmdx Definition


Wind Chill Definition


Weather Definition


TIME
00:00 Legend Double Dagger 7.8 4.8 81 10 16 64.4 98.08     LegendNANA
01:00 Legend Double Dagger 7.7 4.7 81 10 18 64.4 98.02     Mainly Clear
02:00 Legend Double Dagger 7.4 4.5 82 9 18 64.4 97.96     LegendNANA
03:00 Legend Double Dagger 7.8 4.4 79 11 16 64.4 97.97     LegendNANA
04:00 Legend Double Dagger 5.6 3.1 84 6 9 64.4 97.96     Mostly Cloudy
05:00 Legend Double Dagger 5.2 2.9 85 5 3 64.4 97.90     LegendNANA
06:00 Legend Double Dagger 6.3 3.5 82 8 10 64.4 97.86     LegendNANA
07:00 Legend Double Dagger 7.1 3.9 80 8 14 64.4 97.85     Mostly Cloudy
08:00 Legend Double Dagger 7.7 4.7 81 9 17 64.4 97.83     LegendNANA
09:00 Legend Double Dagger 8.7 5.1 78 11 17 64.4 97.82     LegendNANA
10:00 Legend Double Dagger 8.8 4.5 74 12 16 64.4 97.79     Mostly Cloudy
11:00 Legend Double Dagger 9.4 4.4 71 8 4 64.4 97.76     LegendNANA
12:00 Legend Double Dagger 10.8 5.2 68 14 15 64.4 97.73     LegendNANA
13:00 Legend Double Dagger 11.9 5.1 63 4 6 64.4 97.69     Mostly Cloudy
14:00 Legend Double Dagger 12.3 5.1 61 6 9 64.4 97.61     LegendNANA
15:00 Legend Double Dagger 12.6 5.1 60 9 9 64.4 97.53     LegendNANA
16:00 Legend Double Dagger 11.7 5.4 65 9 14 64.4 97.50     Mostly Cloudy
17:00 Legend Double Dagger 11.4 5.3 66 10 22 64.4 97.46     LegendNANA
18:00 Legend Double Dagger 10.7 5.3 69 10 17 64.4 97.53     LegendNANA
19:00 Legend Double Dagger 9.7 4.9 72 7 16 64.4 97.54     Mostly Cloudy
20:00 Legend Double Dagger 9.2 4.8 74 6 8 64.4 97.59     LegendNANA
21:00 Legend Double Dagger 7.9 4.3 78 26 3 64.4 97.63     LegendNANA
22:00 Legend Double Dagger 6.4 4.7 89 18 6 64.4 97.69     Clear
23:00 Legend Double Dagger 4.4 2.9 90 23 4 64.4 97.74     LegendNANA

Notes on Data Quality.

Legend

  • E = Estimated
  • M = Missing
  • NA = Not Available
  • ‡ = Partner data that is not subject to review by the National Climate Archives
Date modified: